PROFILE

 METAR AND TAF INFORMATION
ADDS - METARS form results

(0744 UTC 19 August 2019)
http://aviationweather.gov/metar/data/
 
OERK 190700Z 22005KT CAVOK 39/04 Q1011 NOSIG
TAF OERK 190500Z 1906/2012 16012KT 7000 NSC BECMG 1912/1914 06012KT BECMG 1918/1920 VRB03KT 

 AIRPORT MAP

 RUNWAY INFORMATION
Runway 15L Runway length 13796 ft Runway width 197 ft
Runway elevation 2033 ft Runway displaced threshold 0 ft Runway heading 150
Runway 33R Runway length 13796 ft Runway width 197 ft
Runway elevation 2012 ft Runway displaced threshold 0 ft Runway heading 330
Runway 15R Runway length 13796 ft Runway width 197 ft
Runway elevation 2049 ft Runway displaced threshold 0 ft Runway heading 150
Runway 33L Runway length 13796 ft Runway width 197 ft
Runway elevation 2033 ft Runway displaced threshold 0 ft Runway heading 330

 AIRPORT FREQUENCIES
Type APP Name RIYADH APP Frequency 120 MHZ
Type ATIS Name ATIS Frequency 127.15 MHZ
Type Ctrl Name Frequency 126 MHZ
Type GND Name GND Frequency 121.6 MHZ
Type TWR Name TWR Frequency 118.6 MHZ

 AIRPORT NEAR NAVIGATION AIDS
Type VORTAC Name King Khaled Frequency 113300 KHZ